Regional Weather Roundup
Issued by NWS Sioux Falls, SD

Home | Current Version | Previous Version | Graphics & Text | Print | Product List | Glossary On
Versions: 1 2 3 4 5 6 7 8 9 10 11 12 13 14 15 16 17 18 19 20 21 22 23 24 25 26 27 28 29 30 31 32 33 34 35 36 37 38 39 40 41 42 43 44 45 46 47 48 49 50
000
ASUS43 KFSD 161610
RWRFSD

WEATHER ROUNDUP FOR SE SOUTH DAKOTA/SW MINNESOTA/NW IOWA
NATIONAL WEATHER SERVICE SIOUX FALLS SD
1100 AM CDT TUE SEP 16 2014

NOTE: "FAIR" INDICATES FEW OR NO CLOUDS BELOW 12,000 FEET WITH NO
SIGNIFICANT WEATHER AND OR OBSTRUCTIONS TO VISIBILITY.


SDZ038>040-050-052>070-161700-
SOUTHEAST SOUTH DAKOTA

CITY           SKY/WX    TMP DP  RH WIND       PRES   REMARKS
CHAMBERLAIN    SUNNY     61  49  64 S13       30.04S
HURON          SUNNY     60  45  57 S14G22    30.05F
MADISON        FAIR      57  46  67 S14       30.13F
MITCHELL       SUNNY     60  48  64 MISG      30.08F
SIOUX FALLS    SUNNY     58  45  62 S14       30.15F
WINNER         FAIR      64  48  56 SW18G24   30.02F
YANKTON        SUNNY     61  46  59 S14G20    30.14F
$$

MNZ071-072-080-081-089-090-097-098-161700-
SOUTHWEST MINNESOTA

CITY           SKY/WX    TMP DP  RH WIND       PRES   REMARKS
FAIRMONT       SUNNY     61  41  48 SW9G16    30.18F
JACKSON        SUNNY     59  41  51 SW13      30.19S
LUVERNE        SUNNY     59  43  55 S12G18    30.17F
MARSHALL       SUNNY     61  43  51 SW15G21   30.13F
MONTEVIDEO     SUNNY     63  48  59 W9        30.13F
PIPESTONE      SUNNY     57  45  62 SW13      30.14F
REDWOOD FALLS  SUNNY     61  45  55 SW15      30.15F
TRACY          SUNNY     60  45  58 SW12      30.15F
WINDOM         SUNNY     59  45  58 S10G16    30.17F
WORTHINGTON    SUNNY     57  43  58 SW14      30.18F
$$

IAZ001>003-012>014-020>022-031-032-NEZ013-014-SDZ071-161700-
NORTHWEST IOWA

CITY           SKY/WX    TMP DP  RH WIND       PRES   REMARKS
CHEROKEE       SUNNY     58  49  73 SW9       30.20F
DENISON        MOSUNNY   59  46  63 SW9       30.20F
ESTHERVILLE    SUNNY     58  41  53 SW15G21   30.19F
LE MARS        SUNNY     59  48  67 S12G18    30.19F
ORANGE CITY    SUNNY     59  45  58 S15       30.18F
SHELDON        SUNNY     57  46  67 S15       30.18F
SIOUX CITY     SUNNY     60  45  57 S15G22    30.20F
SPENCER        SUNNY     59  42  53 SW14      30.19F
STORM LAKE     SUNNY     57  52  82 SW9G17    30.20F
$$

ABBREVIATIONS USED IN REMARKS
   TC - TEMPERATURE IN CELSIUS
  WCI - WIND CHILL INDEX
   HX - HEAT INDEX
  VSB - VISIBILITY




USA.gov is the U.S. government's official web portal to all federal, state and local government web resources and services.